Change the Weather History Date:

Monday, January 21, 2013

  Actual Average Record
Temperature  
Mean Temperature 78 °F -  
Max Temperature 91 °F 88 °F 93 °F (2006)
Min Temperature 65 °F 65 °F 59 °F (2005)
Cooling Degree Days 13    
Growing Degree Days 28 (Base 50)    
Moisture  
Dew Point 70 °F    
Average Humidity 75    
Maximum Humidity 100    
Minimum Humidity 49    
Precipitation  
Precipitation 0.00 in - - ()
Sea Level Pressure  
Sea Level Pressure 29.92 in    
Wind  
Wind Speed 2 mph ()    
Max Wind Speed 14 mph    
Max Gust Speed -    
Visibility 5.3 miles    
Events      
Averages and records for this station are not official NWS values.
T = Trace of Precipitation, MM = Missing Value Source: Averaged Metar Reports

Daily Weather History Graph

Daily Weather History Graph

Search for Another Location

Airport or City:

Trip Planner

Search our weather history database for the weather conditions in past years. The results will help you decide how hot, cold, wet, or windy it might be!

Date:

Astronomy

Jan. 21, 2013 Rise Set
Actual Time 6:31 AM CST 5:58 PM CST
Civil Twilight 6:08 AM CST 6:20 PM CST
Nautical Twilight 5:42 AM CST 6:46 PM CST
Astronomical Twilight 5:16 AM CST 7:12 PM CST
Moon 1:41 PM CST (1/21) 1:58 AM CST (1/21)
Length of Visible Light 12h 11m
Length of Day
11h 26m
Waxing Gibbous, 75% of the Moon is Illuminated
Jan 21
Waxing Gibbous
Jan 26
Full
Feb 3
Last Quarter
Feb 10
New
Feb 17
First Quarter

Hourly Weather History & Observations

Time (CST) Temp. Heat Index Dew Point Humidity Pressure Visibility Wind Dir Wind Speed Gust Speed Precip Events Conditions
12:00 AM 73.4 °F - 69.8 °F 88% 29.95 in - Calm Calm - N/A   Clear
1:00 AM 71.6 °F - 69.8 °F 94% 29.92 in - Calm Calm - N/A   Clear
2:00 AM 69.8 °F - 66.2 °F 88% 29.92 in - Calm Calm - N/A   Clear
3:00 AM 68.0 °F - 66.2 °F 94% 29.89 in - Calm Calm - N/A   Clear
4:00 AM 68.0 °F - 66.2 °F 94% 29.89 in - Calm Calm - N/A   Clear
5:00 AM 66.2 °F - 66.2 °F 100% 29.92 in - Calm Calm - N/A   Clear
6:00 AM 67 °F - 65 °F 93% 29.92 in 25 mi Calm Calm - -  
6:00 AM 66.2 °F - 66.2 °F 100% 29.92 in - Calm Calm - N/A   Clear
7:00 AM 66.2 °F - 66.2 °F 100% 29.95 in - Calm Calm - N/A   Clear
8:00 AM 73.4 °F - 69.8 °F 88% 29.98 in - Calm Calm - N/A   Clear
9:00 AM 84.2 °F 90.9 °F 73.4 °F 70% 29.98 in - Calm Calm - N/A   Clear
10:00 AM 87.8 °F 93.8 °F 71.6 °F 58% 29.98 in - West 4.6 mph - N/A   Clear
11:00 AM 89.6 °F 98.2 °F 73.4 °F 59% 29.95 in - South 9.2 mph - N/A   Clear
12:00 PM 89 °F - 72 °F 49% 29.94 in 25 mi South 11.5 mph - -   Clear
12:00 PM 89.6 °F 98.2 °F 73.4 °F 59% 29.95 in - South 11.5 mph - N/A   Clear
1:00 PM 89.6 °F 98.2 °F 73.4 °F 59% 29.89 in - South 11.5 mph - N/A   Clear
2:00 PM 87.8 °F 91.4 °F 68.0 °F 52% 29.92 in 5.6 mi South 11.5 mph - N/A   Overcast
3:00 PM 87.8 °F 91.4 °F 68.0 °F 52% 29.86 in 5.6 mi South 13.8 mph - N/A   Overcast
4:00 PM 87.8 °F 92.6 °F 69.8 °F 55% 29.83 in 5.0 mi SW 9.2 mph - N/A   Overcast
5:00 PM 86.0 °F 90.4 °F 69.8 °F 58% 29.86 in 5.0 mi Calm Calm - N/A   Overcast
6:00 PM 84 °F - 72 °F 59% 29.86 in 25 mi Calm Calm - -   Partly Cloudy
6:00 PM 84.2 °F 89.6 °F 71.6 °F 66% 29.86 in - Calm Calm - N/A   Clear
7:00 PM 80.6 °F 85.4 °F 73.4 °F 79% 29.89 in - Calm Calm - N/A   Clear
8:00 PM 80.6 °F 85.4 °F 73.4 °F 79% 29.92 in - Calm Calm - N/A   Clear
9:00 PM 78.8 °F - 71.6 °F 78% 29.92 in - Calm Calm - N/A   Clear
10:00 PM 78.8 °F - 71.6 °F 78% 29.95 in - Calm Calm - N/A   Clear
11:00 PM 77.0 °F - 71.6 °F 83% 29.92 in - Calm Calm - N/A   Clear